User: anonymous   Login
Location: *
(34.8620°S, 39.3380°E)
Time: 23:38:54
(UTC+00:00)
Language:

Cosmos 2297 - Orbit

View from above orbital plane
View from above orbital plane
View from above satellite
View from above satellite

Ground track
Ground track

The orbit data is extracted from the following two-line orbital elements,

1 23404U 94077A   21300.44459447 -.00000122  00000-0 -39543-4 0  9992
2 23404  71.0162 197.6396 0018172 253.3892 106.5234 14.13556661389171
Epoch (UTC): 27 October 2021 10:40:12
Eccentricity: 0.0018172
inclination: 71.0162°
perigee height: 834 km
apogee height: 860 km
right ascension of ascending node: 197.6396°
argument of perigee: 253.3892°
revolutions per day: 14.13556661
mean anomaly at epoch: 106.5234°
orbit number at epoch: 38917

The dashed part of the orbit path shows where the satellite is in the earth's shadow,  

DLR